User: anonymous   Login
Location: Unspecified
(0.0000°N, 0.0000°E)
Time: 21:21:24
(UTC+02:00)
Language:

Cosmos 1943 Rocket - Orbit

View from above orbital plane
View from above orbital plane
View from above satellite
View from above satellite

Ground track
Ground track

The orbit data is extracted from the following two-line orbital elements,

1 19120U 88039B   16121.54098928 -.00000082  00000-0 -16411-4 0  9996
2 19120  71.0117 116.8043 0019738 102.3529 257.9807 14.19146679447848
Epoch (UTC): 30 April 2016 12:59:01
Eccentricity: 0.0019738
inclination: 71.0117°
perigee height: 814 km
apogee height: 842 km
right ascension of ascending node: 116.8043°
argument of perigee: 102.3529°
revolutions per day: 14.19146679
mean anomaly at epoch: 257.9807°
orbit number at epoch: 44784

The dashed part of the orbit path shows where the satellite is in the earth's shadow,  

DLR